Weather History for KLHB - February, 2013

Change the Weather History Date:

Thursday, February 21, 2013

  Actual Average (KCLL) Record (KCLL)
Temperature  
Mean Temperature 58 °F 56 °F  
Max Temperature 71 °F 66 °F 97 °F (1996)
Min Temperature 44 °F 46 °F 23 °F (1918)
Degree Days  
Heating Degree Days 8 10  
Month to date heating degree days 245  
Since 1 July heating degree days 1323  
Cooling Degree Days 0 1  
Month to date cooling degree days 18  
Year to date cooling degree days 29  
Growing Degree Days 8 (Base 50)    
Moisture  
Dew Point 48 °F    
Average Humidity 67    
Maximum Humidity 100    
Minimum Humidity 23    
Precipitation  
Precipitation 0.25 in 0.09 in 2.75 in (1928)
Month to date precipitation 2.18  
Year to date precipitation 5.42  
Sea Level Pressure  
Sea Level Pressure 29.74 in    
Wind  
Wind Speed 9 mph (SSW)    
Max Wind Speed 23 mph    
Max Gust Speed 29 mph    
Visibility 8 miles    
Events Rain , Thunderstorm    
T = Trace of Precipitation, MM = Missing Value Source: NWS Daily Summary

Daily Weather History Graph

Daily Weather History Graph

Search for Another Location

Airport or City:

Trip Planner

Search our weather history database for the weather conditions in past years. The results will help you decide how hot, cold, wet, or windy it might be!

Date:

Astronomy

Feb. 21, 2013 Rise Set
Actual Time 7:01 AM CST 6:19 PM CST
Civil Twilight 6:36 AM CST 6:43 PM CST
Nautical Twilight 6:08 AM CST 7:11 PM CST
Astronomical Twilight 5:40 AM CST 7:39 PM CST
Moon 2:45 PM CST (2/21) 3:56 AM CST (2/21)
Length of Visible Light 12h 06m
Length of Day
11h 18m
Waxing Gibbous, 84% of the Moon is Illuminated
Feb 21
Waxing Gibbous
Feb 25
Full
Mar 4
Last Quarter
Mar 11
New
Mar 19
First Quarter

Hourly Weather History & Observations

Time (CST) Temp. Dew Point Humidity Pressure Visibility Wind Dir Wind Speed Gust Speed Precip Events Conditions
12:15 AM 57.2 °F 53.6 °F 88% 29.73 in 10.0 mi ESE 10.4 mph 19.6 mph N/A   Overcast
12:35 AM 55.4 °F 53.6 °F 94% 29.72 in 7.0 mi ESE 11.5 mph 18.4 mph N/A   Overcast
12:55 AM 57.2 °F 53.6 °F 88% 29.72 in 7.0 mi ESE 9.2 mph - N/A   Overcast
1:15 AM 57.2 °F 55.4 °F 94% 29.72 in 7.0 mi East 6.9 mph - N/A   Overcast
1:35 AM 57.2 °F 55.4 °F 94% 29.72 in 5.0 mi ESE 5.8 mph - N/A   Overcast
1:55 AM 59.0 °F 57.2 °F 94% 29.70 in 4.0 mi ESE 8.1 mph - N/A   Overcast
2:15 AM 59.0 °F 57.2 °F 94% 29.70 in 3.0 mi ESE 9.2 mph 16.1 mph N/A   Overcast
2:35 AM 59.0 °F 59.0 °F 100% 29.69 in 3.0 mi ESE 8.1 mph - 0.01 in Rain Light Rain
2:55 AM 59.0 °F 59.0 °F 100% 29.69 in 3.0 mi ESE 6.9 mph - 0.01 in   Overcast
3:15 AM 59.0 °F 59.0 °F 100% 29.68 in 3.0 mi ESE 5.8 mph - 0.01 in Rain Rain
3:35 AM 60.8 °F 59.0 °F 94% 29.67 in 3.0 mi East 8.1 mph - 0.05 in Rain Rain
3:55 AM 60.8 °F 59.0 °F 94% 29.66 in 2.5 mi ESE 6.9 mph - 0.08 in Rain Light Rain
4:15 AM 60.8 °F 60.8 °F 100% 29.65 in 3.0 mi ESE 5.8 mph - 0.01 in   Overcast
4:35 AM 60.8 °F 60.8 °F 100% 29.65 in 4.0 mi East 4.6 mph - 0.01 in Rain Rain
4:55 AM 60.8 °F 59.0 °F 94% 29.65 in 4.0 mi East 5.8 mph - 0.02 in Rain Light Rain
5:15 AM 60.8 °F 60.8 °F 100% 29.64 in 5.0 mi East 8.1 mph - 0.06 in Rain Rain
5:55 AM 62.6 °F 62.6 °F 100% 29.63 in 5.0 mi SE 10.4 mph - 0.08 in Rain Light Rain
6:15 AM 64.4 °F 64.4 °F 100% 29.61 in 7.0 mi SE 13.8 mph 19.6 mph N/A   Overcast
6:35 AM 66.2 °F 64.4 °F 94% 29.62 in 10.0 mi SE 12.7 mph 18.4 mph N/A   Overcast
6:55 AM 66.2 °F 64.4 °F 94% 29.63 in 10.0 mi SSE 10.4 mph 16.1 mph N/A   Overcast
7:15 AM 66.2 °F 64.4 °F 94% 29.66 in 10.0 mi SSE 11.5 mph - N/A   Overcast
7:35 AM 66.2 °F 64.4 °F 94% 29.66 in 7.0 mi South 11.5 mph - N/A   Overcast
7:55 AM 68.0 °F 64.4 °F 88% 29.65 in 10.0 mi SSE 11.5 mph - N/A   Scattered Clouds
8:15 AM 68.0 °F 64.4 °F 88% 29.66 in 7.0 mi SSE 11.5 mph 17.3 mph N/A   Scattered Clouds
8:35 AM 69.8 °F 66.2 °F 88% 29.67 in 7.0 mi SSE 11.5 mph - N/A   Clear
8:55 AM 69.8 °F 66.2 °F 88% 29.68 in 10.0 mi South 15.0 mph 19.6 mph N/A   Clear
9:15 AM 69.8 °F 66.2 °F 88% 29.69 in 10.0 mi South 15.0 mph 23.0 mph N/A   Scattered Clouds
9:35 AM 71.6 °F 62.6 °F 73% 29.73 in 7.0 mi West 23.0 mph 28.8 mph N/A   Mostly Cloudy
9:55 AM 59.0 °F 55.4 °F 88% 29.75 in 5.0 mi West 10.4 mph 23.0 mph 0.06 in Rain , Thunderstorm Thunderstorms and Rain
10:15 AM 60.8 °F 55.4 °F 82% 29.76 in 10.0 mi West 10.4 mph - N/A   Mostly Cloudy
10:35 AM 62.6 °F 55.4 °F 77% 29.76 in 10.0 mi West 17.3 mph 20.7 mph N/A   Scattered Clouds
10:55 AM 64.4 °F 50.0 °F 59% 29.77 in 10.0 mi WNW 16.1 mph 21.9 mph N/A   Clear
11:15 AM 66.2 °F 44.6 °F 46% 29.78 in 10.0 mi WNW 17.3 mph 25.3 mph N/A   Clear
11:35 AM 68.0 °F 42.8 °F 40% 29.77 in 10.0 mi WNW 15.0 mph 23.0 mph N/A   Clear
11:55 AM 68.0 °F 41.0 °F 37% 29.77 in 10.0 mi WNW 15.0 mph 24.2 mph N/A   Clear
12:15 PM 68.0 °F 41.0 °F 37% 29.76 in 10.0 mi WNW 16.1 mph 21.9 mph N/A   Scattered Clouds
12:35 PM 69.8 °F 41.0 °F 35% 29.76 in 10.0 mi WNW 12.7 mph 20.7 mph N/A   Scattered Clouds
12:55 PM 68.0 °F 37.4 °F 33% 29.76 in 10.0 mi WNW 15.0 mph 24.2 mph N/A   Mostly Cloudy
1:15 PM 68.0 °F 35.6 °F 30% 29.75 in 10.0 mi WNW 17.3 mph 24.2 mph N/A   Overcast
1:35 PM 68.0 °F 35.6 °F 30% 29.74 in 10.0 mi WNW 13.8 mph 20.7 mph N/A   Overcast
1:55 PM 69.8 °F 35.6 °F 28% 29.73 in 10.0 mi WNW 9.2 mph - N/A   Mostly Cloudy
2:15 PM 68.0 °F 35.6 °F 30% 29.74 in 10.0 mi West 9.2 mph - N/A   Mostly Cloudy
2:35 PM 69.8 °F 33.8 °F 27% 29.73 in 10.0 mi West 11.5 mph 16.1 mph N/A   Scattered Clouds
2:55 PM 71.6 °F 32.0 °F 23% 29.73 in 10.0 mi West 12.7 mph 17.3 mph N/A   Scattered Clouds
3:15 PM 71.6 °F 32.0 °F 23% 29.73 in 10.0 mi West 10.4 mph - N/A   Scattered Clouds
3:35 PM 71.6 °F 32.0 °F 23% 29.73 in 10.0 mi West 11.5 mph 19.6 mph N/A   Scattered Clouds
3:55 PM 71.6 °F 32.0 °F 23% 29.72 in 10.0 mi WSW 6.9 mph - N/A   Clear
4:15 PM 71.6 °F 32.0 °F 23% 29.73 in 10.0 mi West 8.1 mph - N/A   Clear
4:35 PM 71.6 °F 32.0 °F 23% 29.74 in 10.0 mi West 9.2 mph 18.4 mph N/A   Clear
4:55 PM 71.6 °F 32.0 °F 23% 29.74 in 10.0 mi WNW 9.2 mph - N/A   Clear
5:15 PM 69.8 °F 32.0 °F 25% 29.75 in 10.0 mi WNW 8.1 mph - N/A   Clear
5:35 PM 68.0 °F 33.8 °F 28% 29.76 in 10.0 mi NW 4.6 mph - N/A   Clear
5:55 PM 66.2 °F 33.8 °F 30% 29.76 in 10.0 mi WNW 3.5 mph - N/A   Clear
6:15 PM 66.2 °F 33.8 °F 30% 29.77 in 10.0 mi Calm Calm - N/A   Clear
6:35 PM 60.8 °F 41.0 °F 48% 29.78 in 10.0 mi Calm Calm - N/A   Clear
6:55 PM 57.2 °F 41.0 °F 55% 29.78 in 10.0 mi Calm Calm - N/A   Clear
7:15 PM 57.2 °F 41.0 °F 55% 29.80 in 10.0 mi Calm Calm - N/A   Clear
7:35 PM 53.6 °F 42.8 °F 67% 29.80 in 10.0 mi Calm Calm - N/A   Clear
7:55 PM 53.6 °F 42.8 °F 67% 29.81 in 10.0 mi Calm Calm - N/A   Clear
8:15 PM 51.8 °F 41.0 °F 67% 29.83 in 10.0 mi Calm Calm - N/A   Clear
8:35 PM 51.8 °F 42.8 °F 71% 29.84 in 10.0 mi Calm Calm - N/A   Clear
8:55 PM 50.0 °F 42.8 °F 76% 29.85 in 10.0 mi Calm Calm - N/A   Clear
9:15 PM 51.8 °F 41.0 °F 67% 29.85 in 10.0 mi Calm Calm - N/A   Clear
9:35 PM 50.0 °F 42.8 °F 76% 29.86 in 10.0 mi Calm Calm - N/A   Clear
9:55 PM 48.2 °F 42.8 °F 82% 29.87 in 10.0 mi SSW 3.5 mph - N/A   Clear
10:15 PM 48.2 °F 41.0 °F 76% 29.88 in 10.0 mi Calm Calm - N/A   Clear
10:35 PM 48.2 °F 41.0 °F 76% 29.88 in 10.0 mi Calm Calm - N/A   Clear
10:55 PM 44.6 °F 41.0 °F 87% 29.89 in 10.0 mi Calm Calm - N/A   Clear
11:15 PM 46.4 °F 41.0 °F 81% 29.88 in 10.0 mi Calm Calm - N/A   Clear
11:35 PM 46.4 °F 41.0 °F 81% 29.88 in 10.0 mi Calm Calm - N/A   Clear
11:55 PM 44.6 °F 41.0 °F 87% 29.89 in 10.0 mi Calm Calm - N/A   Clear